DLH38J EDDM-LPPR

Flight info

Callsign DLH38J
Flight time 2h 34m
Altitude 33000
Route ALG2E/08R ALG Y109 UMTEX Y100 TRA/N0431F350 DCT LUTIX DCT BENOT DCT NEMOS DCT NINTU/N0427F330 DCT MEBAK/N0435F350 DCT REPSI DCT LERGA DCT MINSO DCT NARAK DCT AGN DCT PIPOR L866 PPN N976 ZMR L155 ADORO DCT INKIT
Aircraft A21N/M-SDE2E3FGIJ1LORWXYZ/HB1

Departure

Time 2026-05-01 08:00
Airport Munich Airport (EDDM)

Arrival

Time 2026-05-01 10:34
Airport Francisco de Sá Carneiro Airport (LPPR)
Time Latitude Longitude Altitude Speed Heading
2026-05-01 07:23 48.35059 11.79385 1491 ft 0 kts 263°
2026-05-01 07:46 48.35064 11.79450 1491 ft 3 kts 263°
2026-05-01 07:47 48.35067 11.79481 1475 ft 4 kts 249°
2026-05-01 07:47 48.35081 11.79510 1491 ft 4 kts 205°
2026-05-01 07:47 48.35104 11.79515 1475 ft 5 kts 173°
2026-05-01 07:47 48.35122 11.79512 1491 ft 0 kts 173°
2026-05-01 07:52 48.35095 11.79516 1491 ft 3 kts 173°
2026-05-01 07:52 48.35068 11.79521 1480 ft 5 kts 173°
2026-05-01 07:52 48.35030 11.79528 1491 ft 6 kts 173°
2026-05-01 07:53 48.34917 11.79547 1478 ft 10 kts 173°
2026-05-01 07:53 48.34843 11.79560 1485 ft 12 kts 174°
2026-05-01 07:53 48.34786 11.79484 1486 ft 13 kts 262°
2026-05-01 07:53 48.34774 11.79339 1489 ft 15 kts 263°
2026-05-01 07:54 48.34748 11.79003 1491 ft 18 kts 263°
2026-05-01 07:55 48.34702 11.78401 1491 ft 21 kts 263°
2026-05-01 07:55 48.34667 11.77943 1482 ft 23 kts 263°
2026-05-01 07:56 48.34607 11.77163 1485 ft 27 kts 263°
2026-05-01 07:56 48.34562 11.76584 1484 ft 29 kts 263°
2026-05-01 07:57 48.34540 11.76304 1486 ft 27 kts 263°
2026-05-01 07:57 48.34495 11.75721 1491 ft 29 kts 263°
2026-05-01 07:58 48.34462 11.75288 1488 ft 14 kts 263°
2026-05-01 07:58 48.34274 11.75241 1486 ft 17 kts 173°
2026-05-01 07:59 48.34085 11.75343 1487 ft 16 kts 85°
2026-05-01 07:59 48.34154 11.76214 1485 ft 101 kts 84°
2026-05-01 08:00 48.34608 11.82545 3002 ft 172 kts 87°
2026-05-01 08:01 48.35060 11.88670 4552 ft 222 kts 85°
2026-05-01 08:01 48.35241 11.91014 5313 ft 229 kts 85°
2026-05-01 08:01 48.35369 11.93421 6108 ft 232 kts 93°
2026-05-01 08:02 48.33912 11.97717 7536 ft 246 kts 137°
2026-05-01 08:02 48.32446 11.99214 7999 ft 268 kts 154°
2026-05-01 08:03 48.28671 11.98701 9431 ft 295 kts 212°
2026-05-01 08:03 48.27290 11.96464 10197 ft 302 kts 242°
2026-05-01 08:03 48.26117 11.90139 11115 ft 333 kts 258°
2026-05-01 08:04 48.25031 11.83170 12377 ft 348 kts 257°
2026-05-01 08:04 48.23806 11.76051 13841 ft 357 kts 256°
2026-05-01 08:05 48.22520 11.68765 15169 ft 366 kts 256°
2026-05-01 08:05 48.21870 11.65101 15797 ft 371 kts 256°
2026-05-01 08:05 48.21200 11.61339 16425 ft 376 kts 256°
2026-05-01 08:06 48.19837 11.53705 17719 ft 383 kts 256°
2026-05-01 08:06 48.18434 11.45890 18946 ft 392 kts 256°
2026-05-01 08:07 48.17002 11.37941 20069 ft 399 kts 256°
2026-05-01 08:07 48.15549 11.29920 21189 ft 404 kts 256°
2026-05-01 08:08 48.14809 11.25844 21739 ft 407 kts 256°
2026-05-01 08:08 48.13306 11.17601 22792 ft 413 kts 257°
2026-05-01 08:09 48.11777 11.09255 23874 ft 418 kts 256°
2026-05-01 08:09 48.11004 11.05048 24328 ft 420 kts 257°
2026-05-01 08:09 48.10237 11.00878 24760 ft 422 kts 257°
2026-05-01 08:10 48.08664 10.92359 25614 ft 427 kts 257°
2026-05-01 08:10 48.07068 10.83760 26424 ft 431 kts 257°
2026-05-01 08:11 48.05446 10.75073 27193 ft 436 kts 257°
2026-05-01 08:11 48.03813 10.66363 27933 ft 440 kts 257°
2026-05-01 08:12 48.02154 10.57540 28711 ft 443 kts 257°
2026-05-01 08:12 48.01316 10.53097 29095 ft 445 kts 257°
2026-05-01 08:12 47.99618 10.44151 29772 ft 450 kts 257°
2026-05-01 08:13 47.98762 10.39655 30104 ft 451 kts 257°
2026-05-01 08:13 47.97901 10.35140 30396 ft 454 kts 257°
2026-05-01 08:13 47.96171 10.26100 30913 ft 458 kts 257°
2026-05-01 08:14 47.95293 10.21520 31131 ft 460 kts 257°
2026-05-01 08:14 47.94412 10.16941 31403 ft 461 kts 256°
2026-05-01 08:14 47.93525 10.12350 31703 ft 461 kts 256°
2026-05-01 08:14 47.92635 10.07757 32018 ft 460 kts 257°
2026-05-01 08:15 47.91747 10.03181 32326 ft 460 kts 256°
2026-05-01 08:15 47.89977 9.94087 32905 ft 459 kts 257°
2026-05-01 08:15 47.89085 9.89524 33184 ft 459 kts 257°
2026-05-01 08:16 47.88190 9.84953 33383 ft 460 kts 257°
2026-05-01 08:16 47.86395 9.75814 33393 ft 460 kts 256°
2026-05-01 08:17 47.84598 9.66716 33363 ft 457 kts 256°
2026-05-01 08:17 47.83145 9.57546 33379 ft 455 kts 262°
2026-05-01 08:18 47.82047 9.48275 33383 ft 456 kts 263°
2026-05-01 08:19 47.79811 9.29770 33361 ft 456 kts 262°
2026-05-01 08:19 47.78675 9.20529 33370 ft 454 kts 262°
2026-05-01 08:20 47.77540 9.11357 33368 ft 454 kts 262°
2026-05-01 08:20 47.76392 9.02123 33373 ft 454 kts 262°
2026-05-01 08:21 47.75240 8.92904 33369 ft 454 kts 262°
2026-05-01 08:21 47.74078 8.83686 33351 ft 453 kts 261°
2026-05-01 08:22 47.72914 8.74544 33360 ft 453 kts 261°
2026-05-01 08:22 47.71741 8.65342 33368 ft 454 kts 261°
2026-05-01 08:23 47.70557 8.56139 33376 ft 453 kts 261°
2026-05-01 08:23 47.69330 8.46953 33398 ft 455 kts 257°
2026-05-01 08:23 47.68245 8.42530 33578 ft 459 kts 244°
2026-05-01 08:24 47.66558 8.38530 33878 ft 457 kts 235°
2026-05-01 08:24 47.64716 8.34771 34218 ft 455 kts 234°
2026-05-01 08:24 47.62840 8.30998 34477 ft 455 kts 234°
2026-05-01 08:24 47.60972 8.27208 34706 ft 454 kts 234°
2026-05-01 08:25 47.59123 8.23422 34930 ft 454 kts 234°
2026-05-01 08:25 47.57282 8.19637 35134 ft 454 kts 234°
2026-05-01 08:25 47.55435 8.15842 35327 ft 454 kts 234°
2026-05-01 08:26 47.51734 8.08255 35396 ft 454 kts 234°
2026-05-01 08:26 47.48060 8.00749 35370 ft 454 kts 234°
2026-05-01 08:27 47.44355 7.93196 35359 ft 454 kts 234°
2026-05-01 08:27 47.40642 7.85644 35361 ft 454 kts 234°
2026-05-01 08:28 47.36929 7.78122 35358 ft 454 kts 234°
2026-05-01 08:28 47.33233 7.70648 35353 ft 454 kts 234°
2026-05-01 08:29 47.29509 7.63140 35357 ft 453 kts 234°
2026-05-01 08:29 47.25784 7.55651 35356 ft 453 kts 234°
2026-05-01 08:30 47.22078 7.48225 35344 ft 453 kts 234°
2026-05-01 08:30 47.18346 7.40759 35343 ft 451 kts 233°
2026-05-01 08:31 47.14551 7.33456 35345 ft 449 kts 231°
2026-05-01 08:31 47.10666 7.26294 35354 ft 448 kts 231°
2026-05-01 08:32 47.06778 7.19147 35354 ft 448 kts 231°
2026-05-01 08:32 47.02910 7.12047 35340 ft 448 kts 231°
2026-05-01 08:33 46.99010 7.04915 35367 ft 448 kts 231°
2026-05-01 08:33 46.95111 6.97800 35373 ft 447 kts 231°
2026-05-01 08:34 46.91236 6.90749 35376 ft 444 kts 230°
2026-05-01 08:34 46.87392 6.83775 35378 ft 443 kts 230°
2026-05-01 08:35 46.83509 6.76762 35377 ft 444 kts 230°
2026-05-01 08:35 46.79621 6.69757 35374 ft 443 kts 230°
2026-05-01 08:36 46.75741 6.62782 35365 ft 443 kts 230°
2026-05-01 08:36 46.71883 6.55857 35353 ft 443 kts 230°
2026-05-01 08:37 46.67990 6.48888 35344 ft 443 kts 230°
2026-05-01 08:37 46.64106 6.41959 35343 ft 441 kts 229°
2026-05-01 08:38 46.60220 6.35046 35347 ft 441 kts 229°
2026-05-01 08:38 46.56363 6.28195 35332 ft 441 kts 229°
2026-05-01 08:39 46.52475 6.21306 35339 ft 441 kts 229°
2026-05-01 08:39 46.48580 6.14423 35338 ft 441 kts 229°
2026-05-01 08:40 46.42729 6.04120 35331 ft 441 kts 229°
2026-05-01 08:40 46.38874 5.97350 35344 ft 434 kts 229°
2026-05-01 08:41 46.35027 5.90607 35339 ft 434 kts 229°
2026-05-01 08:41 46.31172 5.83868 35337 ft 434 kts 229°
2026-05-01 08:42 46.27316 5.77147 35335 ft 434 kts 228°
2026-05-01 08:42 46.23479 5.70476 35323 ft 434 kts 228°
2026-05-01 08:43 46.19619 5.63778 35315 ft 433 kts 228°
2026-05-01 08:43 46.15767 5.57113 35314 ft 432 kts 228°
2026-05-01 08:44 46.12217 5.50120 35312 ft 433 kts 233°
2026-05-01 08:44 46.08827 5.43023 35305 ft 433 kts 233°
2026-05-01 08:45 46.05407 5.35899 35300 ft 433 kts 233°
2026-05-01 08:45 46.01979 5.28782 35301 ft 431 kts 233°
2026-05-01 08:46 45.98559 5.21701 35300 ft 431 kts 233°
2026-05-01 08:46 45.95157 5.14678 35307 ft 431 kts 233°
2026-05-01 08:47 45.91739 5.07638 35315 ft 428 kts 233°
2026-05-01 08:47 45.88328 5.00634 35319 ft 428 kts 233°
2026-05-01 08:48 45.84923 4.93654 35315 ft 424 kts 235°
2026-05-01 08:48 45.81554 4.86767 35316 ft 421 kts 235°
2026-05-01 08:49 45.78210 4.79946 35320 ft 421 kts 235°
2026-05-01 08:49 45.74835 4.73084 35316 ft 421 kts 235°
2026-05-01 08:50 45.71464 4.66243 35300 ft 418 kts 235°
2026-05-01 08:50 45.68115 4.59461 35287 ft 418 kts 235°
2026-05-01 08:51 45.64801 4.52766 35298 ft 414 kts 236°
2026-05-01 08:51 45.61472 4.46049 35293 ft 414 kts 236°
2026-05-01 08:52 45.58139 4.39347 35290 ft 414 kts 235°
2026-05-01 08:52 45.54802 4.32647 35291 ft 414 kts 235°
2026-05-01 08:53 45.51478 4.26004 35294 ft 413 kts 235°
2026-05-01 08:53 45.48147 4.19358 35290 ft 412 kts 236°
2026-05-01 08:54 45.44805 4.12712 35295 ft 412 kts 235°
2026-05-01 08:54 45.41467 4.06078 35291 ft 412 kts 236°
2026-05-01 08:55 45.38146 3.99500 35298 ft 412 kts 235°
2026-05-01 08:55 45.34796 3.92880 35306 ft 412 kts 235°
2026-05-01 08:56 45.31441 3.86268 35305 ft 413 kts 235°
2026-05-01 08:56 45.28065 3.79626 35312 ft 415 kts 235°
2026-05-01 08:57 45.24729 3.73005 35301 ft 415 kts 236°
2026-05-01 08:57 45.21432 3.66296 35305 ft 415 kts 236°
2026-05-01 08:58 45.18129 3.59598 35303 ft 414 kts 236°
2026-05-01 08:58 45.14842 3.52949 35309 ft 414 kts 236°
2026-05-01 08:59 45.11530 3.46261 35304 ft 415 kts 236°
2026-05-01 08:59 45.08204 3.39567 35307 ft 416 kts 236°
2026-05-01 09:00 45.04870 3.32865 35305 ft 416 kts 236°
2026-05-01 09:00 45.01537 3.26186 35308 ft 416 kts 236°
2026-05-01 09:01 44.98219 3.19547 35309 ft 416 kts 236°
2026-05-01 09:01 44.94875 3.12870 35299 ft 417 kts 236°
2026-05-01 09:02 44.91517 3.06188 35306 ft 418 kts 236°
2026-05-01 09:02 44.88150 2.99506 35310 ft 418 kts 236°
2026-05-01 09:03 44.84815 2.92862 35311 ft 418 kts 237°
2026-05-01 09:03 44.81645 2.86004 35306 ft 418 kts 238°
2026-05-01 09:04 44.78485 2.79138 35304 ft 418 kts 238°
2026-05-01 09:04 44.75339 2.72326 35301 ft 418 kts 238°
2026-05-01 09:05 44.72170 2.65477 35302 ft 418 kts 238°
2026-05-01 09:05 44.68995 2.58631 35297 ft 418 kts 238°
2026-05-01 09:06 44.65813 2.51792 35295 ft 418 kts 238°
2026-05-01 09:06 44.62645 2.44997 35297 ft 418 kts 238°
2026-05-01 09:07 44.59452 2.38169 35294 ft 418 kts 238°
2026-05-01 09:07 44.56252 2.31335 35289 ft 420 kts 237°
2026-05-01 09:08 44.53037 2.24488 35292 ft 421 kts 237°
2026-05-01 09:08 44.49830 2.17676 35288 ft 421 kts 237°
2026-05-01 09:09 44.46600 2.10828 35283 ft 422 kts 237°
2026-05-01 09:09 44.43364 2.03991 35276 ft 421 kts 237°
2026-05-01 09:10 44.40131 1.97168 35260 ft 420 kts 237°
2026-05-01 09:10 44.36917 1.90403 35271 ft 421 kts 237°
2026-05-01 09:11 44.33670 1.83579 35265 ft 422 kts 237°
2026-05-01 09:11 44.30411 1.76756 35258 ft 422 kts 237°
2026-05-01 09:12 44.27217 1.69876 35256 ft 423 kts 238°
2026-05-01 09:12 44.24048 1.62973 35252 ft 422 kts 238°
2026-05-01 09:13 44.20898 1.56130 35247 ft 422 kts 237°
2026-05-01 09:13 44.17723 1.49246 35246 ft 423 kts 237°
2026-05-01 09:14 44.14534 1.42354 35246 ft 424 kts 237°
2026-05-01 09:14 44.11335 1.35456 35242 ft 424 kts 237°
2026-05-01 09:15 44.08136 1.28574 35240 ft 424 kts 237°
2026-05-01 09:15 44.04954 1.21739 35239 ft 424 kts 237°
2026-05-01 09:16 44.01746 1.14865 35235 ft 424 kts 237°
2026-05-01 09:17 43.96940 1.04599 35233 ft 423 kts 237°
2026-05-01 09:17 43.92144 0.94401 35234 ft 423 kts 236°
2026-05-01 09:18 43.87417 0.84093 35229 ft 423 kts 239°
2026-05-01 09:19 43.82909 0.73595 35232 ft 424 kts 238°
2026-05-01 09:20 43.78389 0.63119 35228 ft 425 kts 238°
2026-05-01 09:21 43.72314 0.49106 35228 ft 425 kts 238°
2026-05-01 09:21 43.67754 0.38622 35227 ft 424 kts 238°
2026-05-01 09:22 43.61669 0.24700 35226 ft 424 kts 238°
2026-05-01 09:23 43.57095 0.14275 35230 ft 423 kts 238°
2026-05-01 09:24 43.52530 0.03911 35233 ft 424 kts 238°
2026-05-01 09:25 43.46402 -0.09957 35216 ft 423 kts 238°
2026-05-01 09:26 43.41800 -0.20325 35208 ft 422 kts 238°
2026-05-01 09:26 43.37227 -0.30581 35203 ft 421 kts 238°
2026-05-01 09:27 43.32625 -0.40870 35203 ft 422 kts 238°
2026-05-01 09:28 43.29551 -0.47723 35206 ft 422 kts 238°
2026-05-01 09:28 43.26472 -0.54573 35198 ft 421 kts 237°
2026-05-01 09:29 43.21873 -0.64774 35198 ft 421 kts 237°
2026-05-01 09:30 43.17253 -0.74979 35203 ft 420 kts 237°
2026-05-01 09:30 43.12646 -0.85126 35209 ft 421 kts 237°
2026-05-01 09:31 43.09555 -0.91912 35209 ft 420 kts 237°
2026-05-01 09:32 43.04909 -1.02086 35209 ft 420 kts 237°
2026-05-01 09:32 43.00258 -1.12231 35212 ft 418 kts 238°
2026-05-01 09:33 42.97191 -1.18906 35214 ft 418 kts 238°
2026-05-01 09:34 42.92546 -1.28974 35210 ft 418 kts 238°
2026-05-01 09:34 42.87894 -1.39032 35220 ft 418 kts 237°
2026-05-01 09:35 42.83253 -1.49027 35225 ft 418 kts 237°
2026-05-01 09:36 42.80139 -1.55714 35231 ft 419 kts 238°
2026-05-01 09:36 42.77018 -1.62404 35232 ft 419 kts 237°
2026-05-01 09:37 42.73923 -1.69131 35227 ft 419 kts 241°
2026-05-01 09:37 42.71895 -1.76496 35234 ft 420 kts 253°
2026-05-01 09:37 42.71066 -1.80291 35230 ft 420 kts 253°
2026-05-01 09:38 42.68532 -1.91686 35220 ft 420 kts 252°
2026-05-01 09:39 42.65982 -2.02927 35215 ft 414 kts 252°
2026-05-01 09:39 42.64285 -2.10376 35225 ft 414 kts 252°
2026-05-01 09:40 42.61675 -2.21549 35228 ft 416 kts 251°
2026-05-01 09:41 42.59857 -2.28973 35231 ft 414 kts 251°
2026-05-01 09:41 42.57135 -2.40145 35225 ft 419 kts 251°
2026-05-01 09:42 42.55302 -2.47655 35226 ft 419 kts 251°
2026-05-01 09:43 42.51621 -2.62646 35212 ft 419 kts 251°
2026-05-01 09:43 42.49785 -2.70092 35203 ft 420 kts 252°
2026-05-01 09:44 42.46991 -2.81378 35188 ft 422 kts 252°
2026-05-01 09:45 42.45045 -2.88873 35190 ft 422 kts 247°
2026-05-01 09:45 42.41397 -2.99664 35185 ft 422 kts 246°
2026-05-01 09:46 42.38931 -3.06873 35181 ft 423 kts 246°
2026-05-01 09:46 42.36463 -3.14097 35183 ft 423 kts 247°
2026-05-01 09:47 42.34003 -3.21279 35183 ft 424 kts 247°
2026-05-01 09:47 42.31523 -3.28501 35185 ft 424 kts 246°
2026-05-01 09:48 42.29036 -3.35724 35190 ft 424 kts 246°
2026-05-01 09:48 42.26546 -3.42936 35191 ft 424 kts 246°
2026-05-01 09:49 42.24070 -3.50086 35193 ft 423 kts 246°
2026-05-01 09:49 42.21578 -3.57264 35195 ft 423 kts 246°
2026-05-01 09:50 42.19079 -3.64442 35193 ft 423 kts 246°
2026-05-01 09:50 42.16579 -3.71615 35172 ft 423 kts 246°
2026-05-01 09:51 42.14075 -3.78782 35169 ft 422 kts 246°
2026-05-01 09:51 42.11586 -3.85880 35175 ft 420 kts 245°
2026-05-01 09:52 42.09086 -3.92992 35177 ft 420 kts 245°
2026-05-01 09:52 42.06581 -4.00093 35178 ft 420 kts 245°
2026-05-01 09:53 42.04077 -4.07185 35176 ft 420 kts 245°
2026-05-01 09:53 42.01684 -4.14294 35178 ft 420 kts 248°
2026-05-01 09:54 41.99400 -4.21508 35176 ft 419 kts 248°
2026-05-01 09:54 41.97114 -4.28717 35178 ft 419 kts 248°
2026-05-01 09:55 41.94818 -4.35928 35177 ft 420 kts 248°
2026-05-01 09:55 41.92518 -4.43124 35178 ft 419 kts 248°
2026-05-01 09:56 41.90225 -4.50273 35180 ft 420 kts 248°
2026-05-01 09:56 41.87915 -4.57463 35186 ft 420 kts 248°
2026-05-01 09:57 41.85612 -4.64622 35180 ft 417 kts 247°
2026-05-01 09:57 41.83322 -4.71719 35204 ft 417 kts 247°
2026-05-01 09:58 41.81016 -4.78850 35201 ft 417 kts 246°
2026-05-01 09:58 41.78703 -4.85983 35194 ft 417 kts 246°
2026-05-01 09:59 41.76389 -4.93102 35200 ft 417 kts 246°
2026-05-01 09:59 41.74070 -5.00207 35198 ft 415 kts 246°
2026-05-01 10:00 41.71768 -5.07244 35194 ft 415 kts 246°
2026-05-01 10:00 41.69452 -5.14317 35193 ft 415 kts 246°
2026-05-01 10:01 41.67129 -5.21387 35192 ft 415 kts 246°
2026-05-01 10:01 41.64798 -5.28460 35182 ft 415 kts 246°
2026-05-01 10:02 41.62478 -5.35470 35185 ft 415 kts 245°
2026-05-01 10:02 41.60150 -5.42502 35182 ft 414 kts 245°
2026-05-01 10:03 41.57817 -5.49532 35181 ft 414 kts 245°
2026-05-01 10:03 41.55482 -5.56550 35182 ft 414 kts 245°
2026-05-01 10:04 41.53263 -5.63632 35179 ft 414 kts 252°
2026-05-01 10:04 41.52421 -5.71199 35197 ft 416 kts 263°
2026-05-01 10:05 41.51923 -5.78890 35184 ft 416 kts 263°
2026-05-01 10:05 41.51382 -5.86570 35185 ft 416 kts 263°
2026-05-01 10:06 41.50823 -5.94241 35184 ft 416 kts 263°
2026-05-01 10:06 41.50259 -6.01869 35184 ft 416 kts 262°
2026-05-01 10:07 41.49683 -6.09537 35189 ft 416 kts 262°
2026-05-01 10:07 41.49108 -6.17201 35178 ft 415 kts 262°
2026-05-01 10:08 41.48155 -6.28658 35172 ft 415 kts 257°
2026-05-01 10:09 41.46854 -6.36051 35178 ft 410 kts 255°
2026-05-01 10:09 41.45508 -6.43416 35177 ft 408 kts 255°
2026-05-01 10:10 41.44174 -6.50736 34857 ft 402 kts 254°
2026-05-01 10:10 41.43517 -6.54337 34314 ft 398 kts 254°
2026-05-01 10:10 41.42230 -6.61358 33154 ft 387 kts 254°
2026-05-01 10:11 41.41597 -6.64831 32628 ft 384 kts 254°
2026-05-01 10:11 41.40960 -6.68282 32116 ft 383 kts 254°
2026-05-01 10:11 41.40326 -6.71718 31600 ft 381 kts 254°
2026-05-01 10:11 41.39698 -6.75132 31104 ft 378 kts 255°
2026-05-01 10:12 41.39074 -6.78516 30638 ft 375 kts 255°
2026-05-01 10:12 41.38664 -6.80740 30336 ft 373 kts 254°
2026-05-01 10:12 41.37222 -6.88508 29105 ft 366 kts 254°
2026-05-01 10:13 41.36614 -6.91774 28626 ft 362 kts 254°
2026-05-01 10:13 41.36019 -6.94970 28164 ft 359 kts 254°
2026-05-01 10:13 41.35420 -6.98182 27710 ft 355 kts 254°
2026-05-01 10:14 41.34238 -7.04497 26803 ft 349 kts 254°
2026-05-01 10:14 41.33658 -7.07605 26351 ft 345 kts 254°
2026-05-01 10:14 41.33078 -7.10688 25925 ft 342 kts 254°
2026-05-01 10:14 41.32501 -7.13742 25509 ft 339 kts 254°
2026-05-01 10:15 41.31914 -7.16769 25085 ft 337 kts 250°
2026-05-01 10:15 41.30988 -7.19566 24671 ft 335 kts 242°
2026-05-01 10:15 41.29865 -7.22266 24275 ft 333 kts 239°
2026-05-01 10:15 41.28712 -7.24926 23862 ft 331 kts 239°
2026-05-01 10:16 41.27558 -7.27566 23358 ft 329 kts 239°
2026-05-01 10:16 41.26411 -7.30189 22863 ft 327 kts 239°
2026-05-01 10:16 41.24142 -7.35381 21948 ft 323 kts 239°
2026-05-01 10:17 41.23019 -7.37952 21528 ft 321 kts 239°
2026-05-01 10:17 41.20813 -7.43010 20763 ft 317 kts 239°
2026-05-01 10:17 41.19711 -7.45541 20410 ft 316 kts 239°
2026-05-01 10:18 41.17520 -7.50560 19729 ft 313 kts 239°
2026-05-01 10:18 41.16435 -7.53055 19398 ft 312 kts 239°
2026-05-01 10:18 41.15354 -7.55544 19077 ft 311 kts 239°
2026-05-01 10:19 41.14280 -7.58021 18725 ft 310 kts 239°
2026-05-01 10:19 41.13207 -7.60500 18309 ft 309 kts 239°
2026-05-01 10:19 41.12143 -7.62969 17793 ft 308 kts 239°
2026-05-01 10:20 41.10047 -7.67857 16778 ft 305 kts 239°
2026-05-01 10:20 41.09002 -7.70289 16277 ft 303 kts 239°
2026-05-01 10:20 41.07965 -7.72716 15849 ft 301 kts 239°
2026-05-01 10:20 41.06939 -7.75123 15460 ft 299 kts 239°
2026-05-01 10:21 41.05922 -7.77515 15096 ft 297 kts 240°
2026-05-01 10:21 41.04875 -7.82818 14349 ft 299 kts 258°
2026-05-01 10:21 41.04556 -7.85531 13956 ft 298 kts 259°
2026-05-01 10:22 41.03936 -7.90888 13097 ft 296 kts 259°
2026-05-01 10:22 41.03309 -7.96252 12271 ft 293 kts 259°
2026-05-01 10:23 41.02993 -7.98915 11871 ft 291 kts 259°
2026-05-01 10:23 41.02359 -8.04192 11050 ft 289 kts 259°
2026-05-01 10:23 41.02041 -8.06809 10644 ft 287 kts 259°
2026-05-01 10:24 41.01514 -8.11115 9958 ft 283 kts 259°
2026-05-01 10:24 41.00980 -8.17087 9134 ft 280 kts 264°
2026-05-01 10:25 41.00747 -8.21349 8640 ft 278 kts 264°
2026-05-01 10:25 41.00408 -8.27304 7827 ft 277 kts 264°
2026-05-01 10:26 41.00312 -8.28983 7555 ft 276 kts 264°
2026-05-01 10:26 41.00165 -8.31505 7141 ft 274 kts 264°
2026-05-01 10:26 40.99817 -8.37384 6233 ft 274 kts 264°
2026-05-01 10:27 40.99527 -8.42353 5457 ft 269 kts 264°
2026-05-01 10:27 40.99743 -8.46430 4523 ft 273 kts 289°
2026-05-01 10:28 41.00543 -8.48704 3929 ft 272 kts 296°
2026-05-01 10:28 41.02252 -8.53068 3059 ft 258 kts 296°
2026-05-01 10:28 41.03043 -8.55128 2980 ft 243 kts 296°
2026-05-01 10:29 41.04446 -8.58839 2958 ft 212 kts 296°
2026-05-01 10:29 41.05100 -8.60584 2964 ft 206 kts 296°
2026-05-01 10:30 41.06472 -8.63309 2964 ft 162 kts 332°
2026-05-01 10:30 41.08758 -8.63950 3002 ft 172 kts 350°
2026-05-01 10:31 41.11064 -8.64547 2720 ft 161 kts 349°
2026-05-01 10:31 41.13100 -8.65053 2207 ft 143 kts 350°
2026-05-01 10:32 41.15029 -8.65529 2014 ft 145 kts 348°
2026-05-01 10:32 41.16046 -8.65791 1819 ft 156 kts 348°
2026-05-01 10:32 41.18294 -8.66394 1463 ft 164 kts 347°
2026-05-01 10:33 41.20426 -8.66956 820 ft 141 kts 347°
2026-05-01 10:33 41.22279 -8.67453 472 ft 137 kts 346°
2026-05-01 10:34 41.23213 -8.67705 303 ft 136 kts 347°
2026-05-01 10:34 41.24084 -8.67934 238 ft 111 kts 349°
2026-05-01 10:34 41.24542 -8.68054 243 ft 26 kts 348°
2026-05-01 10:35 41.24917 -8.68150 241 ft 30 kts 349°
2026-05-01 10:35 41.25129 -8.68159 239 ft 31 kts 11°
2026-05-01 10:35 41.25251 -8.68110 240 ft 9 kts 19°
2026-05-01 10:35 41.25293 -8.68047 240 ft 12 kts 102°
2026-05-01 10:36 41.25118 -8.67973 240 ft 16 kts 168°
2026-05-01 10:36 41.25006 -8.67944 240 ft 17 kts 169°
2026-05-01 10:36 41.24904 -8.67917 240 ft 15 kts 165°
2026-05-01 10:37 41.24805 -8.67853 241 ft 17 kts 152°
2026-05-01 10:37 41.24553 -8.67770 241 ft 20 kts 169°
2026-05-01 10:37 41.24409 -8.67733 241 ft 19 kts 169°
2026-05-01 10:38 41.24307 -8.67700 240 ft 16 kts 143°
2026-05-01 10:38 41.24256 -8.67622 240 ft 7 kts 127°
2026-05-01 10:38 41.24210 -8.67577 240 ft 10 kts 161°
2026-05-01 10:38 41.24137 -8.67556 240 ft 12 kts 168°
2026-05-01 10:39 41.24048 -8.67532 240 ft 14 kts 169°
2026-05-01 10:39 41.23945 -8.67506 240 ft 16 kts 169°
2026-05-01 10:39 41.23829 -8.67475 240 ft 18 kts 169°
2026-05-01 10:39 41.23752 -8.67446 240 ft 10 kts 141°
2026-05-01 10:40 41.23706 -8.67366 240 ft 12 kts 133°
2026-05-01 10:40 41.23621 -8.67328 240 ft 14 kts 175°
2026-05-01 10:40 41.23557 -8.67360 240 ft 6 kts 211°
2026-05-01 10:40 41.23525 -8.67337 240 ft 5 kts 117°
2026-05-01 10:41 41.23512 -8.67299 240 ft 2 kts 114°
2026-05-01 10:41 41.23508 -8.67287 240 ft 0 kts 115°